User: anonymous   Login
Location: Unspecified
(0.0000°N, 0.0000°E)
Time: 19:10:05
(UTC+00:00)
Language:

Transit 4B - Orbit

View from above orbital plane
View from above orbital plane
View from above satellite
View from above satellite

Ground track
Ground track

The orbit data is extracted from the following two-line orbital elements,

1 00202U 61031A   18111.22446291  .00000030  00000-0  75200-5 0  9999
2 00202  32.4372 158.8920 0101378 272.8319  86.0703 13.63514065814227
Epoch (UTC): 21 April 2018 05:23:13
Eccentricity: 0.0101378
inclination: 32.4372°
perigee height: 948 km
apogee height: 1098 km
right ascension of ascending node: 158.8920°
argument of perigee: 272.8319°
revolutions per day: 13.63514065
mean anomaly at epoch: 86.0703°
orbit number at epoch: 81422

The dashed part of the orbit path shows where the satellite is in the earth's shadow,  

DLR